sat.trackr.live / text

‹ back to catalog

ONEWEB-0048

NORAD 45153 · 2020-008Y

PAYLOAD ACTIVE UNKNOWN

§ Identity

Operator
Country
UK
Launch date
2020-02-06
Launch site
TYMSC
Launch vehicle
Mass (kg)
RCS (m²)

Purposes: comms

External: N2YO · Heavens-Above · Gunter

§ Orbital elements

Epoch: 2026-09-03T19:00:45.747360Z

Period
109.89 min
Inclination
87.8875°
Eccentricity
0.0001871
Mean motion
13.10373669 rev/d
Perigee alt
1,220.3 km
Apogee alt
1,223.1 km
Semi-major
7,599.9 km
B*
-2.0132e-3
RAAN
20.6289°
Arg perigee
97.7763°
Mean anomaly
262.3577°
Rev number
31,810

§ Raw data

ONEWEB-00481 45153U 20008Y   26246.79219615 -.00000690  00000+0 -20132-2 0  99942 45153  87.8875  20.6289 0001871  97.7763 262.3577 13.10373669318100

JSON: /api/v1/satellites/45153 · /tle

For live sub-satellite position, see the globe view (requires WebGL).

§ Visibility from observer

Set your observer location to see the next 7 days of passes ≥ 10°. The values pass through the URL so the page stays shareable.

No JS? Fill the form by hand. The geolocation button needs JavaScript.